Surface/Precipitation History
08/29/2014 02:13  to  8/30/2014 02:13
Change End Date:
Date/Time
(MDT)
Sf
Temp Chem Water Layer Surface Precipitation
Sf Sub Frz Factor Pct Depth IcePct Cond Salin Type Intens Accum Rate
08/30/2014 02:09 Dry 57.7F - - - - - - 0 mhos 0 None None - -
08/30/2014 02:01 Dry 57.2F - - - - - - 0 mhos 0 None None - -
08/30/2014 01:51 Dry 57.6F - - - - - - 0 mhos 0 None None - -
08/30/2014 01:42 Dry 58.3F - - - - - - 0 mhos 1 None None - -
08/30/2014 01:41 Dry 58.3F - - - - - - 0 mhos 1 None None - -
08/30/2014 01:31 Dry 58.1F - - - - - - 0 mhos 2 None None - -
08/30/2014 01:31 Dry 58.1F - - - - - - 0 mhos 2 None None - -
08/30/2014 01:21 Dry 57.9F - - - - - - 0 mhos 4 None None - -
08/30/2014 01:11 Dry 57.9F - - - - - - 0 mhos 5 None None - -
08/30/2014 01:11 Dry 58.1F - - - - - - 0 mhos 6 None None - -
08/30/2014 01:01 Dry 58.1F - - - - - - 0 mhos 7 None None - -
08/30/2014 01:01 Dry 58.1F - - - - - - 0 mhos 7 None None - -
08/30/2014 00:51 Dry 58.5F - - - - - - 0 mhos 7 None None - -
08/30/2014 00:42 Dry 58.5F - - - - - - 0 mhos 7 None None - -
08/30/2014 00:41 Dry 58.6F - - - - - - 0 mhos 7 None None - -
Date/Time
(MDT)
Sf
Temp Chem Water Layer Surface Precipitation
Sf Sub Frz Factor Pct Depth IcePct Cond Salin Type Intens Accum Rate
08/30/2014 00:31 Dry 59.0F - - - - - - 0 mhos 9 None None - -
08/30/2014 00:30 Dry 59.0F - - - - - - 0 mhos 9 None None - -
08/30/2014 00:20 Dry 59.7F - - - - - - 0 mhos 9 None None - -
08/30/2014 00:14 Dry 60.1F - - - - - - 0 mhos 9 None None - -
08/30/2014 00:10 Dry 60.3F - - - - - - 0 mhos 8 None None - -
08/30/2014 00:00 Dry 61.0F - - - - - - 0 mhos 7 None None - -
08/29/2014 23:50 Dry 61.2F - - - - - - 0 mhos 7 None None - -
08/29/2014 23:42 Dry 61.7F - - - - - - 0 mhos 7 Yes - - -
08/29/2014 23:40 Dry 62.4F - - - - - - 0 mhos 7 Yes - - -
08/29/2014 23:31 Dry 63.3F - - - - - - 0 mhos 5 None None - -
08/29/2014 23:30 Dry 63.3F - - - - - - 0 mhos 5 None None - -
08/29/2014 23:20 Dry 63.9F - - - - - - 0 mhos 4 Yes - - -
08/29/2014 23:10 Dry 65.5F - - - - - - 0 mhos 11 Yes - - -
08/29/2014 23:01 Dry 68.9F - - - - - - 0 mhos 0 None None - -
08/29/2014 23:00 Dry 68.9F - - - - - - 0 mhos 0 None None - -
Date/Time
(MDT)
Sf
Temp Chem Water Layer Surface Precipitation
Sf Sub Frz Factor Pct Depth IcePct Cond Salin Type Intens Accum Rate
08/29/2014 22:50 Dry 68.5F - - - - - - 0 mhos 0 None None - -
08/29/2014 22:47 Dry 68.4F - - - - - - 0 mhos 0 None None - -
08/29/2014 22:40 Dry 69.1F - - - - - - 0 mhos 0 None None - -
08/29/2014 22:30 Dry 68.9F - - - - - - 0 mhos 0 None None - -
08/29/2014 22:30 Dry 68.9F - - - - - - 0 mhos 0 None None - -
08/29/2014 22:20 Dry 68.7F - - - - - - 0 mhos 0 None None - -
08/29/2014 22:10 Dry 67.6F - - - - - - 0 mhos 0 None None - -
08/29/2014 22:01 Dry 67.5F - - - - - - 0 mhos 0 None None - -
08/29/2014 22:00 Dry 67.5F - - - - - - 0 mhos 0 None None - -
08/29/2014 21:50 Dry 67.8F - - - - - - 0 mhos 0 None None - -
08/29/2014 21:40 Dry 68.2F - - - - - - 0 mhos 0 None None - -
08/29/2014 21:36 Dry 68.4F - - - - - - 0 mhos 0 None None - -
08/29/2014 21:29 Dry 68.7F - - - - - - 0 mhos 0 None None - -
08/29/2014 21:19 Dry 69.3F - - - - - - 0 mhos 0 None None - -
08/29/2014 21:09 Dry 69.8F - - - - - - 0 mhos 0 None None - -
Date/Time
(MDT)
Sf
Temp Chem Water Layer Surface Precipitation
Sf Sub Frz Factor Pct Depth IcePct Cond Salin Type Intens Accum Rate
08/29/2014 21:05 Dry 70.0F - - - - - - 0 mhos 0 None None - -
08/29/2014 20:59 Dry 70.3F - - - - - - 0 mhos 0 None None - -
08/29/2014 20:49 Dry 71.1F - - - - - - 0 mhos 0 None None - -
08/29/2014 20:49 Dry 71.1F - - - - - - 0 mhos 0 None None - -
08/29/2014 20:39 Dry 71.6F - - - - - - 0 mhos 0 None None - -
08/29/2014 20:30 Dry 72.3F - - - - - - 0 mhos 0 None None - -
08/29/2014 20:29 Dry 72.3F - - - - - - 0 mhos 0 None None - -
08/29/2014 20:19 Dry 73.2F - - - - - - 0 mhos 0 None None - -
08/29/2014 20:15 Dry 73.8F - - - - - - 0 mhos 0 None None - -
08/29/2014 20:09 Dry 74.3F - - - - - - 0 mhos 0 None None - -
08/29/2014 20:01 Dry 75.2F - - - - - - 0 mhos 0 None None - -
08/29/2014 19:59 Dry 75.6F - - - - - - 0 mhos 0 None None - -
08/29/2014 19:49 Dry 76.6F - - - - - - 0 mhos 0 None None - -
08/29/2014 19:46 Dry 77.0F - - - - - - 0 mhos 0 None None - -
08/29/2014 19:39 Dry 77.9F - - - - - - 0 mhos 0 None None - -
Date/Time
(MDT)
Sf
Temp Chem Water Layer Surface Precipitation
Sf Sub Frz Factor Pct Depth IcePct Cond Salin Type Intens Accum Rate
08/29/2014 19:31 Dry 79.0F - - - - - - 0 mhos 0 None None - -
08/29/2014 19:29 Dry 79.0F - - - - - - 0 mhos 0 None None - -
08/29/2014 19:19 Dry 80.4F - - - - - - 0 mhos 0 None None - -
08/29/2014 19:09 Dry 82.0F - - - - - - 0 mhos 0 None None - -
08/29/2014 19:01 Dry 84.0F - - - - - - 0 mhos 0 None None - -
08/29/2014 18:59 Dry 84.6F - - - - - - 0 mhos 0 None None - -
08/29/2014 18:49 Dry 90.1F - - - - - - 0 mhos 0 None None - -
08/29/2014 18:41 Dry 90.7F - - - - - - 0 mhos 0 None None - -
08/29/2014 18:39 Dry 90.5F - - - - - - 0 mhos 0 None None - -
08/29/2014 18:30 Dry 92.3F - - - - - - 0 mhos 0 None None - -
08/29/2014 18:29 Dry 92.1F - - - - - - 0 mhos 0 None None - -
08/29/2014 18:18 Dry 93.4F - - - - - - 0 mhos 0 None None - -
08/29/2014 18:14 Dry 92.8F - - - - - - 0 mhos 0 None None - -
08/29/2014 18:08 Dry 91.0F - - - - - - 0 mhos 0 None None - -
08/29/2014 18:01 Dry 92.1F - - - - - - 0 mhos 0 None None - -
Date/Time
(MDT)
Sf
Temp Chem Water Layer Surface Precipitation
Sf Sub Frz Factor Pct Depth IcePct Cond Salin Type Intens Accum Rate
08/29/2014 17:58 Dry 93.0F - - - - - - 0 mhos 0 None None - -
08/29/2014 17:48 Dry 94.8F - - - - - - 0 mhos 0 None None - -
08/29/2014 17:42 Dry 98.4F - - - - - - 0 mhos 0 None None - -
08/29/2014 17:38 Dry 97.2F - - - - - - 0 mhos 0 None None - -
08/29/2014 17:31 Dry 102.0F - - - - - - 0 mhos 0 None None - -
08/29/2014 17:28 Dry 101.3F - - - - - - 0 mhos 0 None None - -
08/29/2014 17:18 Dry 103.8F - - - - - - 0 mhos 0 None None - -
08/29/2014 17:17 Dry 103.8F - - - - - - 0 mhos 0 None None - -
08/29/2014 17:08 Dry 102.4F - - - - - - 0 mhos 0 None None - -
08/29/2014 17:00 Dry 95.4F - - - - - - 0 mhos 0 None None - -
08/29/2014 16:58 Dry 96.8F - - - - - - 0 mhos 0 None None - -
08/29/2014 16:48 Dry 106.9F - - - - - - 0 mhos 0 None None - -
08/29/2014 16:46 Dry 107.4F - - - - - - 0 mhos 0 None None - -
08/29/2014 16:38 Dry 107.2F - - - - - - 0 mhos 0 None None - -
08/29/2014 16:31 Dry 107.1F - - - - - - 0 mhos 0 None None - -
Date/Time
(MDT)
Sf
Temp Chem Water Layer Surface Precipitation
Sf Sub Frz Factor Pct Depth IcePct Cond Salin Type Intens Accum Rate
08/29/2014 16:28 Dry 107.4F - - - - - - 0 mhos 0 None None - -
08/29/2014 16:18 Dry 105.3F - - - - - - 0 mhos 0 None None - -
08/29/2014 16:16 Dry 105.3F - - - - - - 0 mhos 0 None None - -
08/29/2014 16:08 Dry 103.5F - - - - - - 0 mhos 0 None None - -
08/29/2014 16:01 Dry 109.8F - - - - - - 0 mhos 0 None None - -
08/29/2014 15:58 Dry 109.6F - - - - - - 0 mhos 0 None None - -
08/29/2014 15:49 Dry 109.4F - - - - - - 0 mhos 0 None None - -
08/29/2014 15:47 Dry 109.9F - - - - - - 0 mhos 0 None None - -
08/29/2014 15:37 Dry 110.5F - - - - - - 0 mhos 0 None None - -
08/29/2014 15:31 Dry 110.7F - - - - - - 0 mhos 0 None None - -
08/29/2014 15:27 Dry 110.3F - - - - - - 0 mhos 0 None None - -
08/29/2014 15:17 Dry 110.3F - - - - - - 0 mhos 0 None None - -
08/29/2014 15:16 Dry 109.9F - - - - - - 0 mhos 0 None None - -
08/29/2014 15:07 Dry 110.8F - - - - - - 0 mhos 0 None None - -
08/29/2014 15:01 Dry 111.6F - - - - - - 0 mhos 0 None None - -
Date/Time
(MDT)
Sf
Temp Chem Water Layer Surface Precipitation
Sf Sub Frz Factor Pct Depth IcePct Cond Salin Type Intens Accum Rate
08/29/2014 14:57 Dry 110.3F - - - - - - 0 mhos 0 None None - -
08/29/2014 14:48 Dry 108.0F - - - - - - 0 mhos 0 None None - -
08/29/2014 14:47 Dry 107.6F - - - - - - 0 mhos 0 None None - -
08/29/2014 14:37 Dry 106.0F - - - - - - 0 mhos 0 None None - -
08/29/2014 14:30 Dry 105.4F - - - - - - 0 mhos 0 None None - -
08/29/2014 14:27 Dry 102.7F - - - - - - 0 mhos 0 None None - -
08/29/2014 14:17 Dry 99.1F - - - - - - 0 mhos 0 None None - -
08/29/2014 14:15 Dry 98.1F - - - - - - 0 mhos 0 None None - -
08/29/2014 14:07 Dry 101.1F - - - - - - 0 mhos 0 None None - -
08/29/2014 14:01 Dry 102.7F - - - - - - 0 mhos 0 None None - -
08/29/2014 13:57 Dry 104.7F - - - - - - 0 mhos 0 None None - -
08/29/2014 13:48 Dry 107.4F - - - - - - 0 mhos 0 None None - -
08/29/2014 13:47 Dry 107.6F - - - - - - 0 mhos 0 None None - -
08/29/2014 13:37 Dry 109.2F - - - - - - 0 mhos 0 None None - -
08/29/2014 13:31 Dry 108.9F - - - - - - 0 mhos 0 None None - -
Date/Time
(MDT)
Sf
Temp Chem Water Layer Surface Precipitation
Sf Sub Frz Factor Pct Depth IcePct Cond Salin Type Intens Accum Rate
08/29/2014 13:27 Dry 108.0F - - - - - - 0 mhos 0 None None - -
08/29/2014 13:17 Dry 107.6F - - - - - - 0 mhos 0 None None - -
08/29/2014 13:11 Dry 107.2F - - - - - - 0 mhos 0 None None - -
08/29/2014 13:06 Dry 106.7F - - - - - - 0 mhos 0 None None - -
08/29/2014 13:01 Dry 106.5F - - - - - - 0 mhos 0 None None - -
08/29/2014 12:56 Dry 106.5F - - - - - - 0 mhos 0 None None - -
08/29/2014 12:46 Dry 104.2F - - - - - - 0 mhos 0 None None - -
08/29/2014 12:46 Dry 104.2F - - - - - - 0 mhos 0 None None - -
08/29/2014 12:36 Dry 103.5F - - - - - - 0 mhos 0 None None - -
08/29/2014 12:31 Dry 102.6F - - - - - - 0 mhos 0 None None - -
08/29/2014 12:26 Dry 101.5F - - - - - - 0 mhos 0 None None - -
08/29/2014 12:18 Dry 100.2F - - - - - - 0 mhos 0 None None - -
08/29/2014 12:16 Dry 100.2F - - - - - - 0 mhos 0 None None - -
08/29/2014 12:06 Dry 99.7F - - - - - - 0 mhos 0 None None - -
08/29/2014 12:01 Dry 99.1F - - - - - - 0 mhos 0 None None - -
Date/Time
(MDT)
Sf
Temp Chem Water Layer Surface Precipitation
Sf Sub Frz Factor Pct Depth IcePct Cond Salin Type Intens Accum Rate
08/29/2014 11:56 Dry 98.2F - - - - - - 0 mhos 0 None None - -
08/29/2014 11:46 Dry 96.4F - - - - - - 0 mhos 0 None None - -
08/29/2014 11:36 Dry 95.4F - - - - - - 0 mhos 0 None None - -
08/29/2014 11:31 Dry 94.6F - - - - - - 0 mhos 0 None None - -
08/29/2014 11:26 Dry 93.0F - - - - - - 0 mhos 0 None None - -
08/29/2014 11:16 Dry 91.0F - - - - - - 0 mhos 0 None None - -
08/29/2014 11:06 Dry 89.1F - - - - - - 0 mhos 0 None None - -
08/29/2014 11:01 Dry 88.2F - - - - - - 0 mhos 0 None None - -
08/29/2014 10:56 Dry 87.1F - - - - - - 0 mhos 0 None None - -
08/29/2014 10:46 Dry 85.1F - - - - - - 0 mhos 0 None None - -
08/29/2014 10:36 Dry 82.9F - - - - - - 0 mhos 0 None None - -
08/29/2014 10:31 Dry 81.5F - - - - - - 0 mhos 0 None None - -
08/29/2014 10:26 Dry 80.6F - - - - - - 0 mhos 0 None None - -
08/29/2014 10:16 Dry 78.3F - - - - - - 0 mhos 0 None None - -
08/29/2014 10:06 Dry 75.7F - - - - - - 0 mhos 0 None None - -
Date/Time
(MDT)
Sf
Temp Chem Water Layer Surface Precipitation
Sf Sub Frz Factor Pct Depth IcePct Cond Salin Type Intens Accum Rate
08/29/2014 10:01 Dry 74.5F - - - - - - 0 mhos 0 None None - -
08/29/2014 09:56 Dry 73.0F - - - - - - 0 mhos 0 None None - -
08/29/2014 09:46 Dry 70.0F - - - - - - 0 mhos 0 None None - -
08/29/2014 09:36 Dry 65.8F - - - - - - 0 mhos 0 None None - -
08/29/2014 09:31 Dry 63.1F - - - - - - 0 mhos 0 None None - -
08/29/2014 09:26 Dry 57.9F - - - - - - 0 mhos 0 None None - -
08/29/2014 09:16 Dry 55.9F - - - - - - 0 mhos 0 None None - -
08/29/2014 09:12 Dry 55.8F - - - - - - 0 mhos 0 None None - -
08/29/2014 09:06 Dry 54.7F - - - - - - 0 mhos 0 None None - -
08/29/2014 09:01 Dry 54.7F - - - - - - 0 mhos 0 None None - -
08/29/2014 08:56 Dry 54.1F - - - - - - 0 mhos 0 None None - -
08/29/2014 08:46 Dry 54.1F - - - - - - 0 mhos 0 None None - -
08/29/2014 08:41 Dry 54.1F - - - - - - 0 mhos 0 None None - -
08/29/2014 08:36 Dry 54.9F - - - - - - 0 mhos 0 None None - -
08/29/2014 08:31 Dry 53.4F - - - - - - 0 mhos 0 None None - -
Date/Time
(MDT)
Sf
Temp Chem Water Layer Surface Precipitation
Sf Sub Frz Factor Pct Depth IcePct Cond Salin Type Intens Accum Rate
08/29/2014 08:26 Dry 53.2F - - - - - - 0 mhos 0 None None - -
08/29/2014 08:16 Dry 53.1F - - - - - - 0 mhos 0 None None - -
08/29/2014 08:12 Dry 53.1F - - - - - - 0 mhos 0 None None - -
08/29/2014 08:05 Dry 53.1F - - - - - - 0 mhos 0 None None - -
08/29/2014 08:01 Dry 52.9F - - - - - - 0 mhos 0 None None - -
08/29/2014 07:55 Dry 53.1F - - - - - - 0 mhos 0 None None - -
08/29/2014 07:45 Dry 52.9F - - - - - - 0 mhos 0 None None - -
08/29/2014 07:41 Dry 52.9F - - - - - - 0 mhos 0 None None - -
08/29/2014 07:35 Dry 52.7F - - - - - - 0 mhos 0 None None - -
08/29/2014 07:31 Dry 52.7F - - - - - - 0 mhos 0 None None - -
08/29/2014 07:25 Dry 52.7F - - - - - - 0 mhos 0 None None - -
08/29/2014 07:15 Dry 52.5F - - - - - - 0 mhos 0 None None - -
08/29/2014 07:12 Dry 52.5F - - - - - - 0 mhos 0 None None - -
08/29/2014 07:05 Dry 52.5F - - - - - - 0 mhos 0 None None - -
08/29/2014 07:01 Dry 52.7F - - - - - - 0 mhos 0 None None - -
Date/Time
(MDT)
Sf
Temp Chem Water Layer Surface Precipitation
Sf Sub Frz Factor Pct Depth IcePct Cond Salin Type Intens Accum Rate
08/29/2014 06:55 Dry 52.5F - - - - - - 0 mhos 0 None None - -
08/29/2014 06:45 Dry 52.7F - - - - - - 0 mhos 0 None None - -
08/29/2014 06:41 Dry 52.7F - - - - - - 0 mhos 0 None None - -
08/29/2014 06:35 Dry 52.7F - - - - - - 0 mhos 0 None None - -
08/29/2014 06:31 Dry 52.9F - - - - - - 0 mhos 0 None None - -
08/29/2014 06:25 Dry 52.9F - - - - - - 0 mhos 0 None None - -
08/29/2014 06:15 Dry 53.1F - - - - - - 0 mhos 0 None None - -
08/29/2014 06:05 Dry 53.2F - - - - - - 0 mhos 0 None None - -
08/29/2014 06:03 Dry 53.2F - - - - - - 0 mhos 0 None None - -
08/29/2014 05:55 Dry 53.6F - - - - - - 0 mhos 0 None None - -
08/29/2014 05:45 Dry 53.8F - - - - - - 0 mhos 0 None None - -
08/29/2014 05:35 Dry 54.1F - - - - - - 0 mhos 0 None None - -
08/29/2014 05:31 Dry 54.1F - - - - - - 0 mhos 0 None None - -
08/29/2014 05:25 Dry 54.1F - - - - - - 0 mhos 0 None None - -
08/29/2014 05:15 Dry 54.3F - - - - - - 0 mhos 0 None None - -
Date/Time
(MDT)
Sf
Temp Chem Water Layer Surface Precipitation
Sf Sub Frz Factor Pct Depth IcePct Cond Salin Type Intens Accum Rate
08/29/2014 05:05 Dry 54.5F - - - - - - 0 mhos 0 None None - -
08/29/2014 05:01 Dry 54.5F - - - - - - 0 mhos 0 None None - -
08/29/2014 04:55 Dry 54.9F - - - - - - 0 mhos 0 None None - -
08/29/2014 04:45 Dry 55.0F - - - - - - 0 mhos 0 None None - -
08/29/2014 04:35 Dry 55.2F - - - - - - 0 mhos 0 None None - -
08/29/2014 04:31 Dry 55.2F - - - - - - 0 mhos 0 None None - -
08/29/2014 04:25 Dry 55.4F - - - - - - 0 mhos 0 None None - -
08/29/2014 04:14 Dry 55.4F - - - - - - 0 mhos 0 None None - -
08/29/2014 04:04 Dry 55.8F - - - - - - 0 mhos 0 None None - -
08/29/2014 04:01 Dry 55.9F - - - - - - 0 mhos 0 None None - -
08/29/2014 03:54 Dry 56.1F - - - - - - 0 mhos 0 None None - -
08/29/2014 03:44 Dry 56.5F - - - - - - 0 mhos 0 None None - -
08/29/2014 03:34 Dry 56.8F - - - - - - 0 mhos 0 None None - -
08/29/2014 03:31 Dry 57.0F - - - - - - 0 mhos 0 None None - -
08/29/2014 03:24 Dry 57.6F - - - - - - 0 mhos 0 None None - -
Date/Time
(MDT)
Sf
Temp Chem Water Layer Surface Precipitation
Sf Sub Frz Factor Pct Depth IcePct Cond Salin Type Intens Accum Rate
08/29/2014 03:14 Dry 58.5F - - - - - - 0 mhos 0 None None - -
08/29/2014 03:04 Dry 59.0F - - - - - - 0 mhos 0 None None - -
08/29/2014 03:02 Dry 59.2F - - - - - - 0 mhos 0 None None - -
08/29/2014 02:54 Dry 59.9F - - - - - - 0 mhos 0 None None - -
08/29/2014 02:44 Dry 59.7F - - - - - - 0 mhos 0 None None - -
08/29/2014 02:34 Dry 60.1F - - - - - - 0 mhos 0 None None - -
08/29/2014 02:31 Dry 60.3F - - - - - - 0 mhos 0 None None - -
08/29/2014 02:24 Dry 60.3F - - - - - - 0 mhos 0 None None - -
08/29/2014 02:14 Dry 60.4F - - - - - - 0 mhos 0 None None - -
Change End Date:
Copyright © 1998-2005 Surface Systems, Inc.
All Rights Reserved
Send comments about the data to:
SCAN Web ® is a registered trademark of Surface Systems, Inc.
SCAN Web Version 5.6